sat.trackr.live / text

‹ back to catalog

QIANFAN-133

NORAD 69079 · 2026-104G

PAYLOAD ACTIVE UNKNOWN

§ Identity

Operator
Country
PRC
Launch date
2026-05-12
Launch site
TAISC
Launch vehicle
Mass (kg)
RCS (m²)

External: N2YO · Heavens-Above · Gunter

§ Orbital elements

Epoch: 2026-09-20T04:11:01.959936Z

Period
106.59 min
Inclination
88.9904°
Eccentricity
0.0002019
Mean motion
13.51030874 rev/d
Perigee alt
1,067.0 km
Apogee alt
1,070.0 km
Semi-major
7,446.6 km
B*
6.8956e-5
RAAN
331.7787°
Arg perigee
113.0000°
Mean anomaly
247.1364°
Rev number
1,797

§ Raw data

QIANFAN-1331 69079U 26104G   26263.17432824  .00000057  00000+0  68956-4 0  99932 69079  88.9904 331.7787 0002019 113.0000 247.1364 13.51030874 17977

JSON: /api/v1/satellites/69079 · /tle

For live sub-satellite position, see the globe view (requires WebGL).

§ Visibility from observer

Set your observer location to see the next 7 days of passes ≥ 10°. The values pass through the URL so the page stays shareable.

No JS? Fill the form by hand. The geolocation button needs JavaScript.